Location: Bonny Doon Airfield
(37.0704°N, 122.1252°W)
Time: 18:01:02
(UTC-08:00)

Vanguard 1 Rocket - Pass Details

Date: 30 October 2017
Orbit: 655 x 4222 km, 34.3° (Epoch: 18 November)

Event Time Altitude Azimuth Distance (km) Brightness Sun altitude
Rises 06:13:54 0° 253° (WSW) 7,027 - -15.9°
Reaches altitude 10° 06:19:24 10° 251° (WSW) 5,446 - -14.8°
Exits shadow 06:19:58 11° 251° (WSW) 5,276 10.7 -14.7°
Maximum altitude 06:33:19 70° 172° (S) 1,645 8.7 -12.1°
Drops below altitude 10° 06:40:19 10° 90° (E) 2,885 11.5 -10.7°
Sets 06:42:22 0° 87° (E) 3,604 12.4 -10.3°
